, MO

(GMT )
Kansas City

Weather History for KMKC - October, 2011

Change the Weather History Date:

Thursday, October 20, 2011

  Actual Average Record
Temperature  
Mean Temperature 44 °F -  
Max Temperature 55 °F 64 °F 87 °F (2003)
Min Temperature 34 °F 46 °F 34 °F (2002)
Degree Days  
Heating Degree Days 20    
Moisture  
Dew Point 29 °F    
Average Humidity 56    
Maximum Humidity 75    
Minimum Humidity 34    
Precipitation  
Precipitation 0.00 in - - ()
Sea Level Pressure  
Sea Level Pressure 30.05 in    
Wind  
Wind Speed 6 mph (NW)    
Max Wind Speed 13 mph    
Max Gust Speed 20 mph    
Visibility 10 miles    
Events      
Averages and records for this station are not official NWS values.
T = Trace of Precipitation, MM = Missing Value Source: NWS Daily Summary

Daily Weather History Graph

Daily Weather History Graph

Search for Another Location

Airport or City:

Trip Planner

Search our weather history database for the weather conditions in past years. The results will help you decide how hot, cold, wet, or windy it might be!

Date:

Astronomy

Oct. 20, 2011 Rise Set
Actual Time 7:32 AM CDT 6:32 PM CDT
Civil Twilight 7:05 AM CDT 6:59 PM CDT
Nautical Twilight 6:34 AM CDT 7:31 PM CDT
Astronomical Twilight 6:03 AM CDT 8:02 PM CDT
Moon 12:21 AM CDT (10/20) 2:39 PM CDT (10/20)
Length of Visible Light 11h 54m
Length of Day
11h 00m
Last Quarter, 44% of the Moon is Illuminated
Oct 20
Last Quarter
Oct 26
New
Nov 2
First Quarter
Nov 10
Full
Nov 18
Last Quarter

Hourly Weather History & Observations

Time (CDT) Temp. Windchill Dew Point Humidity Pressure Visibility Wind Dir Wind Speed Gust Speed Precip Events Conditions
12:54 AM 39.9 °F 35.8 °F 26.1 °F 58% 30.02 in 10.0 mi NNW 5.8 mph - N/A   Clear
1:54 AM 39.0 °F 34.0 °F 26.1 °F 60% 30.01 in 10.0 mi NNW 6.9 mph - N/A   Clear
2:54 AM 37.0 °F 34.5 °F 27.0 °F 67% 30.01 in 10.0 mi WSW 3.5 mph - N/A   Clear
3:54 AM 37.0 °F - 27.0 °F 67% 30.02 in 10.0 mi Calm Calm - N/A   Clear
4:54 AM 36.0 °F 33.3 °F 27.0 °F 70% 30.03 in 10.0 mi WNW 3.5 mph - N/A   Clear
5:54 AM 34.0 °F 29.8 °F 27.0 °F 75% 30.03 in 10.0 mi NW 4.6 mph - N/A   Clear
6:54 AM 34.0 °F 28.8 °F 27.0 °F 75% 30.04 in 10.0 mi WNW 5.8 mph - N/A   Clear
7:54 AM 34.0 °F 31.0 °F 27.0 °F 75% 30.05 in 10.0 mi WSW 3.5 mph - N/A   Clear
8:54 AM 37.9 °F 32.1 °F 28.9 °F 70% 30.06 in 10.0 mi NNW 8.1 mph - N/A   Clear
9:54 AM 42.1 °F 37.1 °F 30.0 °F 62% 30.08 in 10.0 mi NW 8.1 mph 17.3 mph N/A   Clear
10:54 AM 46.0 °F 40.6 °F 30.0 °F 54% 30.08 in 10.0 mi NW 11.5 mph 19.6 mph N/A   Clear
11:54 AM 50.0 °F - 30.9 °F 48% 30.07 in 10.0 mi NNW 10.4 mph - N/A   Clear
12:54 PM 52.0 °F - 28.9 °F 41% 30.06 in 10.0 mi NNW 11.5 mph 19.6 mph N/A   Clear
1:54 PM 54.0 °F - 28.9 °F 38% 30.04 in 10.0 mi WNW 9.2 mph 19.6 mph N/A   Clear
2:54 PM 55.0 °F - 28.0 °F 35% 30.02 in 10.0 mi WNW 12.7 mph - N/A   Clear
3:54 PM 55.0 °F - 28.0 °F 35% 30.01 in 10.0 mi NW 8.1 mph - N/A   Clear
4:54 PM 55.9 °F - 28.0 °F 34% 30.02 in 10.0 mi NW 10.4 mph 17.3 mph N/A   Clear
5:54 PM 54.0 °F - 28.0 °F 37% 30.03 in 10.0 mi WNW 6.9 mph - N/A   Clear
6:54 PM 51.1 °F - 28.0 °F 41% 30.04 in 10.0 mi WNW 3.5 mph - N/A   Clear
7:54 PM 48.9 °F - 30.0 °F 48% 30.07 in 10.0 mi WNW 3.5 mph - N/A   Clear
8:54 PM 46.0 °F 44.8 °F 30.0 °F 54% 30.08 in 10.0 mi West 3.5 mph - N/A   Clear
9:54 PM 44.1 °F - 33.1 °F 65% 30.09 in 10.0 mi Calm Calm - N/A   Clear
10:54 PM 42.1 °F - 33.1 °F 70% 30.11 in 10.0 mi Calm Calm - N/A   Clear
11:54 PM 42.8 °F - 32.0 °F 66% 30.11 in 10.0 mi Calm Calm - N/A   Clear